When you browse on this site, cookies collect data to enhance your experience and personalize the content and advertising you see.
Visit our Privacy Policy to learn more. By continuing to use the site, you agree to this use of cookies and data.
  • In Hungary
  • List of Countries
  • For 7 days
  • Water Temperature
  • Weather Map
  • News
  • Weather Widgets
  • user-avatar
    Login

    Hourly Weather Modling

    Today, 7 April, Tuesday

    Time Temperature Precipitation Wind Pressure Humidity
    00:00 +8°C° 0 mm 4 mps 751 mmHg 53%
    01:00 +7°C° 0 mm 4 mps 751 mmHg 57%
    02:00 +8°C° 0 mm 3 mps 751 mmHg 56%
    03:00 +7°C° 0 mm 3 mps 751 mmHg 54%
    04:00 +7°C° 0 mm 3 mps 751 mmHg 53%
    05:00 +7°C° 0 mm 3 mps 752 mmHg 53%
    06:00 +8°C° 0 mm 3 mps 752 mmHg 52%
    07:00 +8°C° 0 mm 3 mps 752 mmHg 52%
    08:00 +10°C° 0 mm 3 mps 752 mmHg 46%
    09:00 +12°C° 0 mm 4 mps 752 mmHg 40%
    10:00 +14°C° 0 mm 4 mps 752 mmHg 34%
    11:00 +15°C° 0 mm 5 mps 752 mmHg 32%
    12:00 +16°C° 0 mm 5 mps 752 mmHg 30%
    13:00 +17°C° 0 mm 5 mps 752 mmHg 27%
    14:00 +17°C° 0 mm 5 mps 751 mmHg 28%
    15:00 +17°C° 0 mm 5 mps 751 mmHg 28%
    16:00 +17°C° 0 mm 5 mps 751 mmHg 28%
    17:00 +15°C° 0 mm 4 mps 751 mmHg 32%
    18:00 +14°C° 0 mm 4 mps 751 mmHg 36%
    19:00 +12°C° 0 mm 3 mps 751 mmHg 40%
    20:00 +11°C° 0 mm 3 mps 751 mmHg 42%
    21:00 +10°C° 0 mm 3 mps 751 mmHg 43%
    22:00 +9°C° 0 mm 3 mps 752 mmHg 45%
    23:00 +8°C° 0 mm 3 mps 752 mmHg 46%

    Tomorrow, 8 April, Wednesday

    Time Temperature Precipitation Wind Pressure Humidity
    00:00 +8°C° 0 mm 2 mps 752 mmHg 47%
    01:00 +7°C° 0 mm 2 mps 751 mmHg 48%
    02:00 +6°C° 0 mm 2 mps 751 mmHg 49%
    03:00 +6°C° 0 mm 2 mps 751 mmHg 50%
    04:00 +5°C° 0 mm 2 mps 751 mmHg 51%
    05:00 +6°C° 0 mm 2 mps 751 mmHg 50%
    06:00 +7°C° 0 mm 2 mps 751 mmHg 49%
    07:00 +7°C° 0 mm 2 mps 751 mmHg 48%
    08:00 +10°C° 0 mm 3 mps 750 mmHg 41%
    09:00 +13°C° 0 mm 4 mps 750 mmHg 35%
    10:00 +15°C° 0 mm 4 mps 750 mmHg 29%
    11:00 +16°C° 0 mm 5 mps 749 mmHg 27%
    12:00 +17°C° 0 mm 5 mps 749 mmHg 26%
    13:00 +20°C° 0 mm 5 mps 749 mmHg 25%
    14:00 +19°C° 0 mm 5 mps 748 mmHg 27%
    15:00 +19°C° 0 mm 5 mps 748 mmHg 29%
    16:00 +19°C° 0 mm 5 mps 747 mmHg 31%
    17:00 +16°C° 0 mm 5 mps 747 mmHg 36%
    18:00 +14°C° 0 mm 4 mps 747 mmHg 42%
    19:00 +12°C° 0 mm 4 mps 747 mmHg 47%
    20:00 +12°C° 0 mm 3 mps 747 mmHg 49%
    21:00 +11°C° 0 mm 3 mps 747 mmHg 51%
    22:00 +10°C° 0 mm 3 mps 747 mmHg 53%
    23:00 +9°C° 0 mm 2 mps 747 mmHg 54%

    Day after tomorrow, 9 April, Thursday

    Time Temperature Precipitation Wind Pressure Humidity
    00:00 +9°C° 0 mm 2 mps 746 mmHg 55%
    01:00 +8°C° 0 mm 2 mps 746 mmHg 56%
    02:00 +9°C° 0 mm 1 mps 746 mmHg 57%
    03:00 +8°C° 0 mm 1 mps 746 mmHg 57%
    04:00 +8°C° 0 mm 1 mps 746 mmHg 58%
    05:00 +9°C° 0 mm 1 mps 745 mmHg 57%
    06:00 +10°C° 0 mm 1 mps 745 mmHg 55%
    07:00 +11°C° 0 mm 1 mps 745 mmHg 53%
    08:00 +13°C° 0 mm 1 mps 745 mmHg 49%
    09:00 +15°C° 0 mm 1 mps 745 mmHg 44%
    10:00 +18°C° 0 mm 1 mps 745 mmHg 40%
    11:00 +19°C° 0 mm 2 mps 745 mmHg 38%
    12:00 +20°C° 0 mm 2 mps 745 mmHg 37%
    13:00 +21°C° 0 mm 2 mps 745 mmHg 36%
    14:00 +21°C° 0 mm 2 mps 744 mmHg 37%
    15:00 +21°C° 0 mm 2 mps 744 mmHg 39%
    16:00 +21°C° 0 mm 2 mps 744 mmHg 41%
    17:00 +19°C° 0 mm 2 mps 744 mmHg 46%
    18:00 +18°C° 0 mm 2 mps 744 mmHg 51%
    19:00 +17°C° 0 mm 2 mps 744 mmHg 55%
    20:00 +16°C° 0 mm 1 mps 744 mmHg 58%
    21:00 +15°C° 0 mm 1 mps 745 mmHg 60%
    22:00 +14°C° 0 mm 1 mps 745 mmHg 63%
    23:00 +13°C° 0 mm 1 mps 745 mmHg 65%

    10 April, Friday

    Time Temperature Precipitation Wind Pressure Humidity
    00:00 +13°C° 0 mm 2 mps 745 mmHg 68%
    01:00 +12°C° 0 mm 2 mps 745 mmHg 71%
    02:00 +12°C° 0 mm 2 mps 745 mmHg 72%
    03:00 +10°C° 0 mm 2 mps 745 mmHg 74%
    04:00 +10°C° 0 mm 2 mps 745 mmHg 75%
    05:00 +12°C° 0 mm 2 mps 745 mmHg 75%
    06:00 +12°C° 0 mm 2 mps 746 mmHg 75%
    07:00 +13°C° 0 mm 2 mps 746 mmHg 75%
    08:00 +14°C° 0 mm 2 mps 746 mmHg 69%
    09:00 +15°C° 0 mm 2 mps 746 mmHg 63%
    10:00 +17°C° 0 mm 2 mps 746 mmHg 58%
    11:00 +17°C° 0 mm 2 mps 746 mmHg 55%
    12:00 +18°C° 0 mm 2 mps 746 mmHg 52%
    13:00 +18°C° 0 mm 2 mps 746 mmHg 50%
    14:00 +19°C° 0 mm 2 mps 745 mmHg 49%
    15:00 +19°C° 0 mm 2 mps 745 mmHg 48%
    16:00 +19°C° 0 mm 3 mps 745 mmHg 48%
    17:00 +17°C° 0 mm 2 mps 745 mmHg 54%
    18:00 +15°C° 0 mm 2 mps 745 mmHg 61%
    19:00 +14°C° 0 mm 1 mps 745 mmHg 68%
    20:00 +13°C° 0 mm 1 mps 745 mmHg 69%
    21:00 +13°C° 0 mm 1 mps 745 mmHg 70%
    22:00 +12°C° 0 mm 1 mps 746 mmHg 72%
    23:00 +12°C° 0 mm 1 mps 745 mmHg 72%

    11 April, Saturday

    Time Temperature Precipitation Wind Pressure Humidity
    00:00 +12°C° 0 mm 1 mps 745 mmHg 72%
    01:00 +10°C° 0 mm 0 mps 745 mmHg 72%
    02:00 +10°C° 0 mm 0 mps 745 mmHg 72%
    03:00 +10°C° 0 mm 0 mps 745 mmHg 72%
    04:00 +10°C° 0 mm 0 mps 745 mmHg 71%
    05:00 +10°C° 0 mm 0 mps 745 mmHg 70%
    06:00 +11°C° 0 mm 0 mps 745 mmHg 69%
    07:00 +12°C° 0 mm 1 mps 745 mmHg 67%
    08:00 +14°C° 0 mm 1 mps 745 mmHg 62%
    09:00 +15°C° 0 mm 1 mps 745 mmHg 57%
    10:00 +18°C° 0 mm 1 mps 745 mmHg 53%
    11:00 +19°C° 0 mm 1 mps 745 mmHg 50%
    12:00 +20°C° 0 mm 1 mps 745 mmHg 48%
    13:00 +20°C° 0 mm 1 mps 744 mmHg 46%
    14:00 +20°C° 0 mm 1 mps 744 mmHg 46%
    15:00 +20°C° 0 mm 1 mps 744 mmHg 47%
    16:00 +20°C° 0 mm 1 mps 743 mmHg 47%
    17:00 +19°C° 0 mm 1 mps 743 mmHg 53%
    18:00 +16°C° 0 mm 1 mps 743 mmHg 58%
    19:00 +15°C° 0 mm 1 mps 743 mmHg 64%
    20:00 +14°C° 0 mm 1 mps 743 mmHg 66%
    21:00 +13°C° 0 mm 1 mps 743 mmHg 69%
    22:00 +13°C° 0 mm 1 mps 744 mmHg 71%
    23:00 +12°C° 0 mm 1 mps 743 mmHg 73%

    12 April, Sunday

    Time Temperature Precipitation Wind Pressure Humidity
    00:00 +12°C° 0 mm 1 mps 743 mmHg 74%
    01:00 +12°C° 0 mm 1 mps 743 mmHg 76%
    02:00 +11°C° 0 mm 1 mps 743 mmHg 77%
    03:00 +11°C° 0 mm 1 mps 743 mmHg 77%
    04:00 +11°C° 0 mm 1 mps 742 mmHg 78%
    05:00 +12°C° 0 mm 1 mps 742 mmHg 75%
    06:00 +13°C° 0 mm 1 mps 742 mmHg 73%
    07:00 +12°C° 0 mm 0 mps 742 mmHg 70%
    08:00 +16°C° 0 mm 1 mps 742 mmHg 63%
    09:00 +19°C° 0 mm 1 mps 742 mmHg 56%
    10:00 +21°C° 0 mm 1 mps 741 mmHg 49%
    11:00 +22°C° 0 mm 1 mps 741 mmHg 45%
    12:00 +21°C° 0 mm 2 mps 741 mmHg 42%
    13:00 +23°C° 0 mm 2 mps 740 mmHg 39%
    14:00 +23°C° 0 mm 2 mps 740 mmHg 40%
    15:00 +22°C° 0 mm 3 mps 739 mmHg 41%
    16:00 +22°C° 0 mm 3 mps 739 mmHg 42%
    17:00 +20°C° 0 mm 3 mps 739 mmHg 49%
    18:00 +19°C° 0 mm 3 mps 738 mmHg 55%
    19:00 +17°C° 0 mm 3 mps 738 mmHg 62%
    20:00 +16°C° 0 mm 2 mps 738 mmHg 66%
    21:00 +15°C° 0 mm 2 mps 738 mmHg 69%
    22:00 +15°C° 0 mm 2 mps 738 mmHg 72%
    23:00 +14°C° 0 mm 2 mps 738 mmHg 74%
    Show more